Wind_Speed
12 12 11 11 12 13 13 13 14 14 14 16 17 17 18 19 21 22 23 24 25 26 27 29 30 32 33 35 37 38 39 40 42 42 42 40 37 34 31 28 24 20 17 15 14 15 16 16 17 17 18 18 19 21 22 23 24 25 26 26 26 26 25 25 25 26 27 28 28 28 28 30 32 31 34 37 36 33 31 33 36 35 34 33 32 33 34 33
12 12 12 12 13 13 14 14 14 15 15 16 17 18 19 20 21 22 23 24 25 26 27 28 30 31 33 34 36 38 39 40 41 41 41 40 38 35 32 29 27 24 21 19 17 16 16 17 17 18 19 19 20 21 22 23 25 25 26 27 26 26 26 27 27 27 28 28 29 29 30 31 32 33 35 38 37 33 33 35 36 36 36 35 34 35 36 35
13 13 13 13 13 14 14 15 15 15 16 17 18 19 20 21 21 22 23 24 25 26 27 28 29 31 32 34 35 37 38 39 40 40 40 39 38 36 34 32 30 28 26 24 21 19 18 18 18 19 19 20 20 21 22 23 24 25 26 27 27 26 27 28 29 29 29 29 30 31 32 32 33 34 36 38 37 35 35 36 36 37 37 37 36 37 38 38
13 13 13 14 14 14 15 15 16 16 16 17 19 20 21 21 22 23 24 25 26 26 27 27 29 30 32 33 35 36 37 38 39 39 39 39 38 37 35 34 33 32 30 28 26 24 22 21 21 21 21 21 20 21 22 23 24 24 25 27 27 27 28 29 31 31 31 31 32 33 34 34 34 36 37 38 38 36 37 38 37 37 38 38 37 37 38 38
14 14 14 14 15 15 15 16 16 16 17 17 19 20 21 22 23 24 25 26 26 26 27 27 28 29 31 32 34 35 36 37 38 38 39 39 38 37 36 35 34 34 33 31 29 27 25 24 23 23 22 22 22 22 22 23 25 25 24 26 28 28 29 31 32 33 33 33 33 33 35 37 38 39 39 39 38 37 38 39 38 39 39 39 38 38 39 39
15 14 14 15 15 15 16 16 16 16 17 17 18 20 21 22 23 24 25 26 27 27 27 27 28 29 30 31 33 34 35 36 37 38 39 39 38 38 36 35 34 34 34 33 31 29 28 26 25 25 24 24 24 24 24 24 25 26 25 26 29 30 31 32 33 34 34 34 34 35 36 39 41 42 41 40 38 38 40 41 40 40 41 42 41 41 41 41
16 15 15 15 16 16 16 16 16 16 17 17 18 19 21 22 23 24 25 26 27 28 28 28 29 29 30 31 32 33 34 36 37 37 38 38 38 37 36 35 34 33 33 34 33 32 30 29 27 27 27 26 26 25 26 25 25 28 27 27 28 30 32 33 34 35 35 34 35 37 38 40 43 44 43 40 38 40 42 42 42 42 42 43 43 43 44 44
17 16 16 16 16 16 17 17 17 17 17 17 18 19 20 22 23 24 25 26 27 28 28 29 30 30 30 31 31 32 33 34 35 35 36 36 36 36 35 35 34 33 32 32 33 33 31 30 29 29 28 27 27 27 27 27 26 29 30 29 29 30 32 33 34 35 35 35 37 39 40 41 43 45 45 41 38 40 43 43 43 43 43 43 43 44 45 45
18 18 17 17 17 17 17 17 17 17 17 17 18 19 20 22 24 25 26 27 27 28 29 29 30 30 30 30 30 30 31 32 33 33 33 33 34 34 34 34 34 33 32 32 32 32 32 31 30 29 29 28 29 28 29 29 29 30 32 32 31 32 33 33 34 35 36 36 37 39 41 42 42 45 46 41 39 41 42 43 43 43 43 43 43 44 46 47
19 19 19 18 18 17 17 18 18 17 17 18 19 20 21 22 23 25 26 27 28 29 29 30 30 31 30 29 29 30 30 31 31 31 31 32 32 33 34 34 33 33 33 32 32 32 32 32 31 30 29 28 28 29 29 30 30 30 33 33 33 34 34 33 33 34 35 35 36 38 41 42 41 44 45 42 40 41 42 43 42 43 43 44 45 46 47 48
21 20 20 19 19 18 18 18 18 18 18 18 19 20 21 22 23 25 26 27 29 30 30 31 31 31 30 29 29 29 29 29 29 29 30 31 32 33 34 34 33 33 33 33 33 32 32 32 32 31 30 28 28 27 27 28 29 29 31 32 31 32 33 32 32 32 33 34 35 36 38 41 41 44 47 44 41 40 41 41 42 43 44 46 47 47 48 48
22 22 21 21 20 19 19 19 19 19 19 19 20 20 21 22 23 25 26 28 29 31 32 32 32 32 31 29 28 28 28 28 28 29 30 31 32 33 34 34 34 34 34 34 33 32 31 31 30 31 30 30 29 28 27 27 28 28 29 31 30 31 31 30 30 31 32 33 35 36 38 40 42 46 47 44 42 42 42 43 44 44 45 47 48 48 48 47
23 23 23 22 21 21 21 20 20 20 20 20 21 21 22 23 24 25 26 28 29 31 32 32 33 32 30 29 28 28 28 28 28 29 29 31 32 33 33 34 34 35 34 34 33 32 32 31 30 30 30 30 30 30 30 30 29 29 29 30 31 32 33 31 31 31 31 32 35 39 39 40 43 47 47 45 44 45 45 46 46 46 47 48 48 48 47 46
25 24 24 23 23 23 22 22 21 21 21 21 21 22 22 23 24 25 27 28 29 31 32 33 32 31 30 30 28 27 28 28 28 28 29 30 31 32 33 34 34 34 34 34 34 32 32 32 31 30 29 29 29 29 30 31 30 30 30 30 31 32 34 34 32 32 33 33 35 39 40 40 44 48 49 46 45 46 46 47 48 48 48 49 48 48 47 46
27 26 25 25 24 24 24 23 23 22 22 22 22 23 23 24 25 26 28 28 29 30 31 32 33 31 31 30 29 28 28 28 29 29 29 29 30 32 33 34 34 34 34 34 34 34 33 32 32 31 30 29 30 29 29 30 31 30 28 28 29 30 33 34 34 33 34 35 37 40 41 41 45 50 51 48 46 46 46 47 48 48 49 49 48 48 47 48
28 27 27 26 26 25 25 25 24 24 23 23 23 24 24 25 26 27 29 29 29 29 30 32 33 32 31 30 30 30 28 29 29 29 28 29 30 32 33 34 34 33 34 34 34 35 34 33 32 32 31 30 31 31 30 30 32 32 31 29 29 30 31 34 36 34 33 35 38 41 42 41 44 49 51 49 47 45 45 47 48 49 49 50 49 49 50 51
30 29 28 28 27 27 26 26 26 25 24 24 24 25 25 26 27 28 29 30 29 29 30 32 33 33 32 31 31 30 29 30 30 29 29 29 30 31 33 33 33 33 34 34 34 34 34 33 33 33 33 32 32 33 33 32 32 34 35 34 33 33 33 34 37 37 34 35 38 42 43 42 43 49 51 50 47 46 47 49 49 50 51 51 51 52 54 56
31 30 30 29 29 28 28 28 27 27 26 26 25 26 26 27 27 28 29 30 29 29 30 32 33 34 33 32 32 30 30 30 30 30 30 30 31 32 33 33 33 34 34 34 34 34 34 34 34 35 36 36 35 35 36 36 35 35 36 36 35 36 36 37 40 41 38 38 40 43 46 44 45 50 53 51 49 49 49 50 51 52 53 54 54 55 57 59
32 31 31 31 30 30 30 29 29 28 28 28 27 28 28 28 29 29 29 30 30 30 31 33 34 35 34 33 32 32 31 30 30 31 31 32 32 32 33 34 34 35 34 34 34 35 35 36 36 37 39 40 39 38 38 39 39 38 38 38 38 39 39 39 43 45 43 42 43 46 48 47 47 52 54 52 51 51 51 52 53 54 55 56 57 58 60 62
33 33 33 32 32 32 31 31 31 30 30 30 29 30 30 29 30 30 28 29 31 33 34 35 35 36 36 34 33 33 32 31 32 32 33 33 34 33 33 34 35 36 35 34 34 35 36 37 38 39 41 43 43 42 41 41 41 41 41 41 41 41 42 42 45 47 46 47 48 49 51 48 47 53 55 52 52 52 52 53 53 54 56 57 58 60 61 63
35 35 34 34 34 33 33 33 33 33 32 32 31 31 32 32 32 32 29 28 30 32 33 33 35 36 35 34 34 34 33 33 33 34 35 35 35 35 34 35 35 36 36 36 36 36 37 38 38 40 43 44 45 45 45 43 42 43 43 43 43 44 45 45 48 49 49 51 52 52 54 51 49 54 54 52 52 51 51 53 53 54 56 57 60 62 62 65
37 37 36 36 35 35 35 35 34 35 34 34 34 33 34 34 35 36 34 31 28 30 32 33 34 36 35 36 36 35 35 34 34 36 37 36 36 37 36 36 36 37 37 37 37 37 39 40 40 42 44 46 47 47 47 46 44 45 45 46 46 47 48 48 50 52 53 54 55 56 58 55 52 55 55 53 51 50 52 54 55 56 57 59 63 64 65 68
39 39 39 38 37 37 37 37 37 37 37 36 36 36 36 36 37 38 38 37 32 30 32 34 36 37 36 37 37 37 36 35 36 36 37 37 37 38 38 37 37 38 39 39 39 39 40 42 43 44 46 47 48 48 48 48 47 47 47 47 48 49 50 50 51 53 54 56 57 58 59 57 56 57 57 56 54 55 56 57 58 59 59 63 65 66 67 69
42 41 41 40 40 40 39 39 39 39 39 39 38 37 37 38 39 39 40 41 37 32 32 35 37 38 38 38 38 37 36 37 38 36 36 38 39 39 40 39 38 38 40 41 41 42 42 44 46 47 48 49 49 49 49 50 50 49 49 49 49 49 50 50 52 53 54 54 56 58 59 59 57 58 60 59 58 59 59 60 61 61 62 65 66 66 68 68
44 43 43 42 42 42 42 41 41 41 41 40 40 39 39 39 40 41 42 44 41 35 34 37 39 39 39 40 39 38 38 39 38 37 37 39 40 40 40 41 41 40 41 43 44 44 45 46 48 49 50 51 52 52 51 51 52 52 51 50 50 50 50 51 52 53 54 53 55 56 59 61 60 60 62 60 60 60 61 62 63 63 65 66 66 66 68 67
46 45 45 45 44 44 44 43 42 43 42 42 41 40 40 40 41 43 44 46 45 39 38 40 41 41 41 41 40 41 41 40 39 39 39 40 41 41 41 42 43 43 43 45 45 45 46 47 49 51 52 53 55 55 53 52 52 53 52 51 51 51 51 52 52 54 54 54 55 55 58 63 63 61 62 62 61 61 62 64 65 65 66 66 66 67 67 67
48 47 47 47 46 46 46 45 44 44 44 43 43 42 41 41 42 44 46 49 48 42 42 43 42 43 43 41 41 41 41 41 42 41 40 41 41 42 42 42 44 45 46 47 48 48 49 49 50 52 53 55 56 56 56 54 53 53 52 51 51 52 52 52 53 55 55 55 56 55 58 64 64 62 62 63 63 63 64 66 67 66 67 66 66 68 68 68
50 49 49 48 48 48 48 47 46 45 45 45 44 43 42 42 43 44 47 51 50 47 46 45 45 46 44 43 42 40 40 42 43 43 42 42 42 43 43 42 44 45 47 50 51 51 52 52 52 54 54 56 57 57 56 55 53 53 52 52 52 52 52 52 53 55 55 58 58 57 59 63 65 64 63 64 65 65 66 68 68 68 67 67 68 68 68 68
52 51 51 50 50 50 49 49 48 47 47 47 46 45 44 44 44 45 47 50 49 50 50 48 47 47 45 44 43 41 42 44 44 44 44 44 44 44 44 44 44 45 47 50 52 53 54 54 55 55 56 57 57 57 56 55 54 52 51 51 51 51 51 52 55 56 58 60 60 59 60 63 67 66 64 66 67 66 68 70 70 69 68 67 68 69 69 69
53 53 52 52 52 52 51 50 49 48 49 49 48 48 47 47 47 47 49 49 48 51 53 50 49 48 47 46 44 43 44 45 45 45 45 46 46 46 46 46 47 47 49 51 53 54 55 55 56 56 57 58 57 56 55 54 52 52 51 51 51 52 53 55 57 58 60 62 61 63 63 65 70 68 66 69 69 67 69 71 70 68 66 67 69 69 69 69
54 54 54 54 54 53 53 52 51 50 51 51 50 51 50 50 50 49 49 49 50 53 53 50 50 50 49 48 46 45 46 47 47 45 46 47 47 47 47 48 48 50 51 52 54 56 56 57 57 57 59 59 58 56 55 53 53 53 53 53 54 55 56 58 60 60 62 63 63 65 66 68 71 68 68 71 70 70 71 70 68 65 65 67 69 69 69 69
57 56 56 56 55 55 54 53 53 52 53 53 53 54 53 54 55 52 48 48 51 53 53 51 52 52 51 50 47 46 47 49 49 48 48 49 49 48 49 49 49 52 55 55 57 59 59 59 59 60 60 60 60 58 57 56 56 56 55 55 57 57 58 61 62 62 63 64 65 67 67 70 70 68 69 72 71 70 71 69 67 65 65 68 70 69 68 69
58 58 58 58 57 57 56 55 55 54 54 55 56 56 56 58 59 54 50 49 50 53 53 54 54 53 52 51 48 47 48 49 49 49 50 51 51 50 50 50 50 53 56 57 59 60 61 61 61 62 62 62 62 60 60 60 60 60 59 58 60 60 61 63 64 65 65 66 67 67 68 70 70 70 71 73 71 71 70 68 66 65 68 70 70 68 68 70
59 59 59 59 58 58 57 57 56 56 56 58 59 60 61 61 59 55 52 51 51 51 52 54 55 55 54 52 50 49 50 50 50 50 51 53 53 52 51 50 51 53 56 57 59 61 63 63 63 64 64 64 63 62 62 63 63 64 62 62 63 63 65 65 66 68 68 68 69 68 69 70 71 72 74 72 71 71 70 67 65 68 70 70 69 68 69 70
60 60 60 60 60 59 59 58 58 58 60 61 62 65 66 63 58 55 54 53 53 52 52 53 55 55 55 53 51 50 51 52 52 52 54 54 55 54 53 52 53 55 56 58 60 62 64 65 65 66 66 65 65 63 63 64 66 65 64 65 66 66 67 67 69 71 71 71 71 69 71 72 73 75 74 70 69 70 68 67 68 69 69 69 68 67 69 69
62 62 62 62 61 61 61 60 60 62 63 64 67 70 69 63 57 55 55 54 54 53 54 54 55 55 55 54 53 51 52 53 53 54 56 56 56 56 55 55 56 56 57 58 61 64 65 66 67 67 67 67 67 65 65 66 67 66 65 66 66 66 67 69 71 71 71 72 72 71 72 73 74 76 73 69 68 68 67 67 68 68 67 67 67 67 68 69
64 64 64 63 62 63 63 63 63 65 66 68 71 72 68 62 56 54 55 55 55 54 54 55 54 54 55 55 54 54 55 55 56 57 57 57 58 57 56 57 58 58 59 60 62 65 67 68 69 69 70 69 69 68 68 68 69 67 65 65 65 66 68 69 70 70 69 70 73 74 74 75 76 75 71 68 67 67 67 67 66 66 66 66 65 67 69 69
66 67 67 65 64 64 65 65 66 68 69 72 74 72 67 61 55 53 56 56 55 55 55 54 55 56 57 56 54 55 56 57 58 59 59 59 60 59 58 59 59 59 60 62 64 66 68 70 71 71 71 71 71 71 70 71 70 68 64 64 65 68 69 68 68 69 67 69 75 77 76 78 77 72 69 66 65 67 67 66 65 66 65 64 65 67 69 70
68 69 69 67 65 65 66 67 68 70 73 74 74 70 65 60 56 55 57 56 55 56 55 55 56 57 57 56 56 57 59 60 60 60 61 62 63 62 61 61 61 61 62 64 66 67 69 71 73 72 72 73 72 72 73 72 70 67 64 65 67 69 69 68 69 69 66 69 75 78 80 80 75 69 66 63 63 66 67 66 67 66 62 62 65 67 68 70
70 70 70 68 66 66 67 69 71 73 75 75 73 69 64 61 59 58 58 57 56 57 56 56 58 58 57 57 57 59 61 63 62 62 63 64 64 64 63 62 62 63 64 66 68 68 69 72 74 73 73 74 74 74 73 71 67 65 65 67 68 69 69 69 70 69 67 70 74 77 82 81 74 69 64 61 62 64 65 67 67 64 62 63 65 67 68 70
72 72 71 69 68 67 68 71 73 74 75 75 72 68 65 63 62 60 59 59 58 58 58 58 58 58 58 59 59 60 64 65 64 64 65 65 66 66 65 64 64 65 66 67 69 70 71 73 74 73 74 75 75 74 72 68 66 66 67 69 69 70 71 70 70 69 69 73 74 76 82 81 73 67 63 60 61 63 65 67 64 62 62 64 66 67 69 70
75 75 73 72 71 71 71 73 75 76 76 75 72 68 66 65 64 63 63 62 61 61 61 60 58 58 58 59 61 63 65 66 65 66 66 66 67 68 67 66 66 67 68 68 70 72 74 74 74 74 75 76 75 74 70 67 67 68 69 71 71 73 73 71 72 71 72 76 76 76 81 81 72 65 61 61 62 63 66 65 62 61 61 63 67 68 68 69
77 76 75 75 76 75 75 76 77 77 76 74 72 70 68 67 66 66 66 65 64 63 63 61 59 59 60 60 62 64 66 67 65 65 67 69 69 70 69 68 68 69 70 70 71 74 76 75 75 77 77 75 74 72 68 68 69 70 72 73 74 75 74 74 75 74 76 79 76 74 79 79 71 65 61 61 62 64 66 64 62 61 61 64 67 68 67 67
77 77 77 78 79 79 79 78 78 77 76 74 74 72 69 68 68 68 68 68 68 67 65 62 62 63 63 64 65 66 66 67 65 65 69 71 71 70 69 69 70 70 70 70 71 75 76 75 77 78 76 74 71 69 69 70 71 72 74 74 75 75 74 75 74 76 80 77 72 74 78 73 68 66 63 61 63 64 65 65 63 61 61 65 67 66 65 65
78 79 78 79 80 81 81 79 78 77 77 76 75 73 70 70 71 70 70 71 73 71 67 64 64 65 66 67 68 67 67 67 68 69 71 72 71 70 69 70 70 70 70 70 72 75 76 77 78 76 72 70 68 68 70 71 71 74 75 74 74 73 72 72 73 77 78 72 69 76 75 68 65 66 64 64 65 64 64 65 63 60 62 65 65 64 63 63
78 79 79 80 81 81 80 79 79 79 77 76 76 73 73 73 73 72 73 75 76 74 70 67 66 67 69 70 70 68 68 69 72 73 73 72 71 69 69 69 70 70 70 71 73 77 78 78 77 74 70 68 67 68 71 71 72 75 75 74 74 73 71 70 73 75 70 67 72 74 70 67 64 61 63 66 65 65 66 65 61 61 63 63 62 62 62 64
79 80 79 79 80 81 81 80 80 78 76 76 76 76 75 76 75 75 77 77 76 74 73 71 69 70 71 71 70 70 70 72 75 76 74 71 69 68 69 70 70 71 71 73 76 79 80 80 78 75 72 69 68 70 72 72 74 75 76 76 75 72 71 71 73 70 63 66 73 68 64 68 64 58 62 66 65 66 66 63 61 62 62 60 60 61 63 64
78 79 78 79 80 81 81 80 79 78 76 77 78 76 76 77 78 79 79 78 76 74 74 73 72 73 73 71 72 72 72 75 77 75 72 70 68 69 70 71 71 72 73 76 79 81 83 83 78 74 72 71 72 73 72 72 74 75 76 77 74 71 69 68 69 65 61 67 71 64 62 65 62 60 63 64 66 66 64 62 62 62 60 58 59 61 62 65
79 79 78 79 79 79 79 79 79 80 78 77 77 77 77 79 80 80 80 80 78 76 75 75 73 73 73 72 73 75 74 77 77 72 70 70 70 70 71 72 73 75 77 79 81 83 85 82 75 72 72 73 73 72 71 72 74 75 76 76 71 66 63 64 66 62 61 65 66 63 63 61 58 62 64 63 65 66 62 62 62 60 58 58 59 61 63 65
81 80 78 78 78 78 79 79 80 80 79 78 80 80 80 80 79 79 80 80 78 78 79 79 75 73 74 74 76 77 76 75 73 71 70 72 72 72 74 74 75 77 79 80 81 82 82 78 72 69 70 71 70 69 69 71 72 75 77 73 67 61 60 63 63 59 60 63 62 63 64 59 57 62 64 62 64 64 62 61 59 57 58 58 59 61 63 65
85 83 80 81 80 79 80 80 80 80 81 81 82 81 81 80 79 79 80 79 79 80 80 78 75 75 77 78 78 78 75 73 73 72 72 74 75 75 76 76 77 78 78 78 79 79 77 73 68 66 67 68 67 68 69 68 71 76 75 67 61 60 60 60 57 57 60 62 62 62 61 58 58 60 61 62 63 63 61 60 57 56 57 58 60 62 63 65
89 88 86 84 82 81 81 83 83 84 84 84 84 83 83 81 79 80 82 81 79 78 76 75 76 77 79 79 79 77 76 75 75 75 75 78 78 77 78 78 78 76 74 75 77 76 73 69 65 63 66 67 67 67 68 69 74 76 69 61 59 60 58 54 54 57 59 61 61 60 58 58 59 58 59 62 62 62 60 57 55 55 56 59 61 63 65 66
Wind_Direction
245 254 267 278 288 296 304 311 316 322 325 328 332 338 344 347 348 348 349 349 351 352 353 354 354 353 353 356 358 0 2 5 6 7 7 5 3 2 3 3 1 357 351 342 328 315 306 299 294 291 291 292 294 296 297 298 298 298 298 299 301 304 308 311 313 315 319 325 326 328 327 325 328 326 321 320 322 327 328 324 326 329 331 330 327 325 324 324
246 255 267 277 287 294 302 308 313 317 321 323 326 332 338 343 345 346 346 346 348 350 351 352 351 350 351 353 355 357 359 2 5 6 6 6 4 2 360 360 359 356 352 347 341 333 323 313 306 301 297 296 297 298 298 299 299 299 299 300 302 305 308 309 310 314 319 323 324 325 324 323 324 321 319 318 321 325 325 323 324 327 329 327 325 323 321 321
247 256 267 276 285 293 300 305 310 314 317 320 322 326 332 337 341 342 343 344 345 348 350 350 349 348 349 350 352 354 356 359 2 5 5 5 6 3 359 357 355 354 351 348 343 338 332 327 321 316 310 305 303 302 301 300 300 301 302 302 303 305 307 309 311 314 318 321 322 321 320 320 320 318 316 317 321 323 323 323 322 325 327 324 323 321 320 321
248 256 266 276 283 291 297 303 308 312 315 318 320 323 327 333 337 339 340 341 343 346 348 348 347 346 347 348 350 352 354 357 0 3 4 4 5 4 2 357 354 352 350 348 344 340 336 332 327 323 318 314 311 308 306 304 303 302 303 303 304 306 309 310 312 315 318 319 319 318 317 316 316 315 315 316 319 321 322 321 321 324 324 321 321 319 319 319
248 256 265 273 281 288 294 300 304 309 313 316 318 321 325 329 333 336 338 339 341 344 346 346 345 345 346 347 348 350 353 356 359 1 2 2 3 3 3 360 355 352 349 347 344 341 337 334 329 325 322 319 316 313 310 308 305 304 306 305 305 308 310 311 313 315 317 317 316 315 314 313 313 313 313 314 317 319 319 318 321 322 320 319 319 318 317 317
247 254 263 271 278 285 292 297 302 306 310 313 316 320 324 327 330 333 336 338 339 342 344 345 344 344 345 347 349 350 353 356 358 360 0 360 0 1 1 0 357 353 349 347 344 341 337 334 332 327 324 321 318 316 312 311 308 306 307 306 308 311 312 313 314 315 315 314 313 312 311 311 310 311 311 312 316 318 316 316 319 319 318 318 318 317 316 315
245 251 259 268 276 283 290 295 300 305 308 311 314 318 323 326 328 332 334 337 338 339 342 343 343 344 345 348 349 350 352 355 357 358 358 357 358 357 357 357 356 354 350 347 344 342 339 334 331 328 325 322 319 317 314 314 311 310 311 311 312 313 313 314 314 314 313 312 311 310 309 308 308 309 309 311 315 316 315 315 316 316 316 316 317 316 314 313
245 250 257 265 273 281 288 294 299 303 307 309 312 317 321 324 327 330 333 335 336 338 340 342 343 343 345 347 348 348 350 353 356 356 356 355 355 354 353 352 351 350 349 346 344 342 340 336 331 328 324 321 319 317 316 316 315 313 313 314 314 313 313 313 313 312 310 310 309 307 306 305 306 308 309 311 313 313 313 313 313 314 314 315 314 313 311 311
246 250 256 263 270 279 286 292 297 301 304 308 312 315 319 322 325 329 331 333 335 336 338 340 342 342 344 346 346 345 347 351 353 353 353 353 352 351 349 348 346 346 346 345 343 342 340 337 333 328 325 322 320 319 317 316 315 314 313 314 314 313 312 311 311 310 308 307 307 305 304 305 307 308 309 310 311 312 312 311 312 313 313 313 312 310 309 309
247 251 255 261 268 275 283 288 293 298 302 306 310 314 317 321 324 327 329 331 333 334 337 339 340 341 343 346 344 341 344 349 350 351 350 349 349 348 345 344 343 342 342 342 342 341 339 337 334 330 328 325 322 320 317 316 315 315 313 314 314 313 311 311 310 308 307 307 307 305 304 306 308 307 309 311 310 312 310 310 311 311 312 311 310 308 308 308
247 252 256 260 266 273 279 285 290 295 299 303 308 312 316 319 322 325 327 329 330 332 334 336 339 340 342 345 341 338 342 345 347 347 346 345 345 344 342 340 339 339 339 339 339 339 339 338 334 331 329 325 323 319 316 315 315 315 314 314 314 312 310 311 311 309 309 309 308 306 304 306 307 306 310 312 311 310 308 308 309 309 310 309 308 308 307 308
248 253 257 261 266 271 277 283 288 292 297 301 305 310 313 316 319 322 324 326 328 329 331 333 336 338 341 342 339 338 341 343 344 343 342 342 342 341 339 337 336 336 336 336 336 337 338 338 336 333 329 327 324 320 316 313 312 312 311 312 313 310 310 311 312 311 310 310 308 305 303 305 307 308 312 314 313 312 310 309 309 309 309 308 308 308 307 308
249 254 258 261 266 270 276 281 286 291 295 299 303 307 310 313 316 319 321 323 325 326 328 330 334 337 339 340 339 338 340 340 340 339 339 339 338 337 335 334 334 334 335 336 336 337 337 337 338 337 333 329 325 321 318 316 313 312 310 310 311 310 311 311 312 309 309 310 307 304 304 305 308 312 315 315 314 313 311 310 309 309 309 308 308 307 307 308
250 255 258 262 266 270 275 280 285 289 294 297 301 304 307 310 312 315 317 319 321 322 324 326 330 335 337 337 338 337 337 337 336 336 336 335 335 334 333 332 332 333 335 337 338 339 338 338 339 339 339 335 327 321 318 316 315 313 311 311 311 311 311 311 311 310 310 311 306 305 308 309 312 315 316 316 315 312 311 309 308 308 308 307 307 307 307 307
251 255 259 263 266 270 274 278 283 287 291 295 298 301 304 306 308 310 312 314 317 319 321 324 327 331 332 333 335 336 335 334 333 333 332 332 332 331 331 331 331 332 334 336 339 340 340 340 340 340 342 339 331 324 318 315 313 312 312 314 313 314 314 313 313 313 314 314 310 310 312 312 315 316 314 313 313 311 309 308 307 307 307 307 307 307 308 308
252 256 260 264 267 270 273 278 281 285 289 292 294 297 299 301 303 306 308 311 313 317 320 322 325 327 329 330 332 333 333 331 330 330 329 329 330 329 328 329 330 331 332 334 337 339 340 341 340 339 340 338 333 329 325 321 318 317 320 323 323 321 321 319 316 316 318 316 313 313 313 312 314 314 311 310 311 310 309 308 308 308 309 309 309 309 309 310
252 256 261 265 268 271 273 277 280 283 286 289 291 293 295 297 299 302 305 307 310 314 317 320 322 323 325 327 329 330 330 329 327 327 327 326 327 326 326 327 327 328 329 332 334 336 338 339 338 337 336 335 333 330 328 327 325 323 323 325 326 325 324 321 316 316 318 316 312 311 311 310 314 314 310 311 312 311 311 310 310 312 312 312 312 311 311 311
253 257 261 265 269 271 274 276 279 282 285 287 288 289 291 293 295 298 301 304 307 311 314 317 319 320 323 325 326 327 326 325 324 324 324 323 324 324 323 323 324 325 327 330 331 332 333 334 335 335 334 333 331 329 327 327 326 324 321 320 320 319 318 318 313 312 315 315 311 309 309 311 314 313 311 314 315 313 314 314 314 316 315 314 313 312 312 312
255 258 261 265 268 271 274 276 279 281 283 285 286 287 288 289 291 294 297 300 302 305 310 314 316 318 321 323 323 323 322 323 322 321 321 321 322 322 321 321 322 323 326 328 328 328 330 332 333 333 334 333 331 328 326 324 323 321 320 318 317 315 314 314 311 309 312 313 311 310 309 313 315 312 312 316 315 315 316 315 316 317 316 313 312 312 312 313
256 259 261 265 268 271 273 276 278 280 282 283 285 285 286 287 288 290 293 297 300 303 309 313 316 317 318 319 319 319 320 320 320 319 319 319 319 320 319 319 320 321 323 324 325 327 328 329 330 330 332 332 331 329 325 322 320 318 318 317 317 315 314 314 311 310 313 312 312 311 310 314 315 310 312 315 314 317 317 315 315 315 314 313 312 311 312 312
258 260 262 265 268 271 273 276 278 280 281 282 283 283 284 285 286 287 288 290 294 299 305 310 313 314 315 315 315 315 315 316 317 317 317 317 318 318 318 317 319 319 320 323 324 326 326 326 327 327 329 330 330 329 326 323 321 318 316 316 315 313 312 313 312 312 313 312 312 312 310 315 314 310 312 313 313 316 314 314 314 313 313 312 312 312 312 313
260 262 263 265 268 271 273 276 278 280 281 282 283 282 283 284 285 286 287 285 286 292 299 304 308 309 310 311 311 310 311 313 315 315 315 316 316 316 316 317 318 318 319 321 321 322 324 325 326 326 327 328 328 327 325 324 322 319 317 316 315 313 311 311 311 311 311 310 311 311 311 315 314 311 311 311 313 313 312 313 314 313 312 312 313 314 314 313
262 263 265 267 269 271 273 276 277 279 280 281 282 282 283 283 284 286 287 287 286 288 295 300 303 304 305 306 306 307 307 310 312 313 313 314 315 314 314 316 317 317 318 319 319 321 323 323 324 325 325 326 326 324 322 321 320 318 317 317 316 315 313 313 312 311 311 311 312 311 312 314 312 310 311 312 313 312 312 314 313 312 312 311 313 314 314 314
263 264 266 268 269 271 273 275 277 278 280 280 281 281 282 283 284 285 286 288 288 290 294 298 300 301 301 302 304 304 305 308 311 311 311 313 313 313 314 314 315 316 316 317 317 319 321 321 322 323 323 324 324 324 321 318 318 317 316 316 316 316 315 315 314 313 313 313 312 311 312 313 311 311 312 313 312 311 313 314 312 312 311 311 314 314 313 314
264 265 266 268 270 272 273 275 277 278 279 280 281 281 282 283 284 285 286 287 287 291 295 296 298 299 299 300 302 303 304 307 309 308 310 312 311 311 312 313 314 316 316 315 315 318 319 320 320 320 321 322 323 323 321 318 317 316 315 315 314 315 316 316 316 316 316 315 313 312 313 312 312 312 313 313 312 312 313 313 312 311 310 311 314 314 313 313
265 266 267 269 271 273 274 275 277 278 279 280 280 281 282 283 284 285 286 286 287 292 296 296 297 298 299 300 302 303 304 306 307 308 310 310 310 310 311 312 313 314 315 313 313 316 317 318 319 319 320 321 321 321 320 317 316 315 315 314 314 315 315 316 317 316 317 316 315 315 312 310 313 314 312 313 313 313 313 313 312 311 309 311 313 313 312 313
266 267 268 270 272 273 274 276 276 278 279 279 280 281 282 283 284 285 285 285 288 294 296 296 298 299 299 300 301 303 304 305 306 307 308 309 309 309 309 311 311 312 314 312 313 315 316 317 318 319 320 320 320 321 320 317 316 315 315 314 313 314 314 315 315 314 315 315 315 315 311 309 313 313 312 313 312 312 313 313 312 311 311 313 313 312 312 313
266 267 269 271 272 274 275 276 276 278 279 279 280 280 281 282 282 284 284 285 290 296 296 296 298 298 299 299 300 301 302 303 304 305 307 307 308 307 307 308 309 311 312 312 314 315 315 317 318 319 320 320 321 321 320 318 316 315 314 312 312 312 313 313 313 313 314 313 314 315 310 310 313 312 312 312 311 313 314 312 311 312 313 313 313 313 313 314
267 268 269 270 272 273 274 276 277 278 278 278 279 279 281 281 281 282 282 284 293 297 296 297 298 298 298 299 299 300 301 301 302 305 307 307 307 306 307 308 308 309 310 311 313 313 314 316 317 319 320 320 321 321 320 318 316 315 313 312 312 312 312 312 312 312 312 311 313 313 311 312 312 312 313 311 311 314 314 312 311 312 314 314 314 314 314 314
266 267 269 270 271 272 274 275 276 277 277 277 278 279 279 279 280 280 280 286 293 294 294 297 297 296 297 298 298 299 300 300 302 304 305 306 306 307 307 309 309 309 309 310 311 311 313 314 316 317 318 318 319 320 320 318 316 315 314 313 314 313 312 311 310 311 310 311 313 313 313 312 312 315 315 312 313 315 313 311 311 313 314 315 315 315 315 315
265 266 268 269 270 271 273 274 274 275 276 276 277 277 278 278 278 277 281 289 292 291 292 295 295 294 296 297 298 299 299 300 302 303 304 305 305 306 307 309 309 308 307 308 309 310 311 313 315 316 316 316 317 319 320 318 316 315 315 316 314 311 312 311 310 311 311 312 313 313 314 313 313 317 316 313 315 316 313 311 312 314 315 315 316 316 314 314
264 265 267 268 269 270 271 272 273 274 274 275 276 276 277 276 276 278 283 288 289 290 293 293 293 293 294 295 297 298 299 300 302 304 305 305 304 305 307 309 310 308 307 308 309 310 311 312 314 315 315 316 317 318 319 318 316 314 314 316 314 313 313 311 312 313 312 313 313 313 314 314 316 318 314 313 315 315 312 311 313 315 314 316 318 316 313 314
264 265 266 267 269 270 271 271 272 273 274 275 275 275 275 275 276 281 284 284 285 288 291 291 291 292 292 294 295 297 297 299 301 303 304 304 303 305 306 309 310 308 307 308 308 309 310 311 313 314 314 315 316 317 317 317 316 314 314 313 313 316 316 313 313 314 313 314 314 315 316 316 317 316 313 313 315 314 312 312 313 313 312 315 317 315 313 314
263 264 266 267 268 269 270 271 272 272 273 274 274 274 274 274 278 283 284 283 284 286 288 289 289 289 291 293 295 296 297 298 300 302 302 301 302 303 304 307 309 307 306 306 307 308 309 311 312 313 313 315 316 316 315 316 316 315 314 311 312 317 317 315 315 314 314 314 315 317 317 316 317 314 312 314 315 313 313 312 312 311 312 315 316 314 313 313
263 264 265 266 267 269 270 271 271 272 272 273 273 273 273 276 280 282 282 283 285 286 286 286 286 288 291 292 293 295 296 298 301 301 300 301 301 301 303 305 306 305 305 306 307 307 309 310 311 311 312 313 314 315 314 314 316 315 313 313 315 316 317 318 317 316 315 314 315 317 316 315 315 313 314 315 314 313 311 311 311 311 313 315 315 313 312 311
262 263 264 265 267 268 269 270 271 272 272 272 272 272 274 277 280 281 282 284 284 285 285 284 285 288 290 291 292 294 295 297 299 299 299 300 300 300 302 303 304 304 305 306 306 307 308 309 310 310 311 312 312 313 313 314 316 315 313 314 316 317 318 319 317 316 314 313 315 316 314 315 314 314 316 315 313 312 310 310 311 311 313 315 313 311 309 310
262 263 264 265 266 268 269 270 271 271 272 272 271 272 275 278 280 281 282 283 283 283 283 284 285 287 288 289 292 294 295 297 297 297 298 298 298 299 301 302 303 304 305 305 306 307 307 307 308 309 309 310 311 312 313 314 315 314 313 315 316 318 319 317 315 313 312 311 314 315 314 315 315 314 316 314 311 310 309 309 310 311 313 313 311 309 308 309
261 262 263 264 265 267 268 269 270 271 271 270 271 273 276 278 280 280 280 281 282 282 282 283 285 286 287 289 292 294 295 296 296 297 298 298 298 299 300 301 302 303 304 304 305 306 305 305 307 308 309 309 310 311 312 313 314 313 312 313 314 316 318 316 312 310 310 310 312 314 314 314 315 314 313 312 310 309 309 309 310 312 312 311 309 308 308 309
261 261 262 263 265 266 268 269 269 269 269 270 271 274 276 278 280 279 279 280 280 280 281 282 282 284 286 290 292 293 294 294 294 296 297 298 298 299 300 301 302 302 302 302 303 304 304 304 306 308 308 309 310 310 310 312 312 311 310 310 311 314 316 314 310 309 310 309 310 313 314 313 313 312 311 311 310 308 308 308 310 312 311 309 308 307 307 308
261 261 262 263 264 265 266 267 267 268 269 270 272 274 276 278 279 278 278 279 279 279 280 280 280 283 286 289 291 292 292 292 294 296 296 297 298 298 298 299 300 300 300 301 302 303 302 302 304 306 308 309 309 309 310 310 310 310 310 308 309 312 313 311 310 310 309 307 307 310 311 312 312 311 310 310 308 307 306 307 310 311 310 308 307 307 308 308
261 261 262 262 263 263 264 265 266 267 268 269 271 274 277 278 278 278 277 277 278 279 279 279 280 283 286 288 289 290 290 291 294 295 295 296 297 297 297 298 299 299 299 300 302 301 301 301 303 305 307 308 308 308 309 308 308 309 308 307 308 310 311 310 309 310 309 306 307 308 308 310 311 310 309 308 306 305 305 306 309 310 309 308 306 307 309 310
261 261 262 263 263 262 263 264 265 266 267 270 272 275 275 276 277 277 276 276 277 278 278 278 280 282 284 286 288 288 289 291 293 295 296 295 294 295 296 297 297 297 297 298 300 300 300 300 302 304 306 306 307 307 306 306 307 307 306 306 306 307 309 308 307 309 308 307 308 307 306 308 310 308 307 307 305 305 304 306 308 309 308 306 305 308 310 311
261 262 263 263 263 263 262 263 264 266 268 271 272 273 273 275 276 276 276 277 278 278 278 278 280 282 283 284 285 287 288 291 293 295 294 292 292 293 295 297 296 296 296 297 299 300 300 300 302 304 304 304 304 304 305 306 306 305 305 305 305 307 308 307 307 309 307 308 310 306 303 308 309 306 305 306 305 304 303 305 308 309 307 304 306 310 311 311
262 262 262 262 263 263 263 263 265 266 268 270 270 271 273 274 275 275 275 277 277 277 277 279 280 281 282 283 284 285 288 291 293 293 291 290 290 293 295 296 295 294 294 295 297 299 299 300 302 302 301 301 302 303 305 305 304 304 304 304 305 306 306 306 308 307 306 310 310 301 301 309 309 306 307 306 304 303 302 304 309 310 306 305 308 310 311 312
262 262 263 263 263 264 264 265 266 266 267 268 269 271 272 273 274 275 275 275 275 276 278 280 280 281 282 282 283 285 289 292 292 290 288 288 291 294 295 295 294 293 293 293 296 297 297 298 299 300 300 301 302 303 303 303 302 301 302 303 303 304 305 307 307 304 306 310 305 299 303 308 307 307 307 305 303 302 302 306 309 308 305 307 310 310 311 313
261 262 263 264 264 265 266 266 266 266 267 269 270 271 271 271 273 274 274 274 275 276 279 280 281 281 282 283 285 287 289 290 289 288 287 289 292 294 294 293 292 292 293 293 295 295 296 297 298 298 299 300 301 301 300 299 299 300 301 301 302 304 306 307 304 305 307 305 301 303 306 305 305 307 305 303 302 302 303 306 308 306 306 309 310 310 312 314
261 262 264 265 266 267 267 267 267 268 269 270 270 270 270 271 272 272 272 273 274 276 278 280 281 281 282 284 286 287 288 288 287 287 289 291 292 292 291 291 291 292 292 292 293 294 295 296 296 296 296 298 298 297 297 297 297 298 299 300 301 303 305 305 304 305 304 298 300 306 304 302 306 307 303 302 301 301 304 306 306 305 308 310 309 311 313 314
262 263 264 265 265 266 267 268 269 269 268 268 268 269 270 271 271 272 273 273 274 275 277 279 280 281 282 284 285 285 285 285 285 286 289 291 290 289 289 290 290 291 291 291 293 294 295 295 294 293 294 295 295 294 295 296 296 298 298 298 300 303 305 304 302 302 299 296 301 305 301 302 308 307 303 301 300 302 304 304 304 307 309 309 309 312 314 315
262 263 264 265 266 267 269 269 269 268 268 268 269 269 269 269 270 271 273 274 275 277 278 278 278 280 282 283 283 283 283 283 285 287 289 288 288 288 288 289 289 290 290 292 293 294 294 294 293 292 292 292 292 292 293 294 296 297 296 298 302 305 304 301 299 299 297 297 301 302 301 306 310 304 302 302 301 303 303 303 305 307 307 308 311 314 315 315
262 263 264 266 267 268 268 268 269 270 270 270 269 269 268 268 270 272 273 275 277 277 277 277 279 282 283 282 281 281 281 283 285 286 287 286 286 287 287 288 289 290 291 293 293 293 292 291 291 291 290 290 290 292 293 294 295 294 295 300 304 304 301 299 299 298 296 297 300 301 303 308 307 301 301 302 302 302 302 303 306 306 306 308 312 314 315 315
260 261 263 264 265 266 268 269 269 269 269 269 269 270 270 271 272 273 273 274 274 274 276 279 282 283 282 280 280 280 282 283 284 284 284 284 285 285 286 288 290 291 292 292 292 292 291 290 291 292 291 291 292 293 294 295 293 293 297 303 303 300 299 298 297 296 296 298 301 302 304 306 304 301 302 301 300 301 303 304 304 304 306 310 313 314 314 314
259 259 260 261 263 264 266 268 268 268 268 269 270 271 271 271 271 271 272 272 272 274 278 280 281 280 279 279 280 281 283 283 283 283 283 283 284 285 287 290 291 292 292 292 292 291 290 290 291 292 293 294 294 295 295 294 293 296 301 303 299 298 299 297 295 296 298 300 301 303 305 304 302 302 301 300 300 302 303 303 302 303 307 311 312 313 313 314
Height
5902 5902 5902 5902 5902 5902 5901 5901 5901 5901 5900 5899 5899 5898 5898 5897 5896 5895 5894 5892 5891 5890 5889 5887 5886 5885 5883 5881 5880 5878 5876 5874 5872 5870 5868 5866 5865 5863 5862 5861 5860 5859 5859 5858 5857 5857 5856 5856 5855 5854 5853 5852 5851 5850 5849 5848 5847 5846 5845 5844 5844 5843 5843 5842 5841 5841 5840 5839 5837 5835 5834 5831 5830 5828 5825 5823 5823 5824 5823 5820 5818 5818 5818 5817 5814 5812 5811 5810
5902 5902 5902 5902 5901 5901 5901 5901 5900 5900 5899 5899 5898 5898 5897 5897 5895 5894 5893 5892 5890 5889 5888 5887 5885 5884 5882 5881 5879 5878 5876 5874 5873 5871 5869 5867 5865 5863 5861 5860 5860 5859 5858 5857 5856 5856 5855 5855 5854 5853 5851 5850 5849 5848 5847 5846 5845 5844 5843 5842 5842 5841 5840 5840 5839 5839 5838 5837 5835 5833 5831 5829 5827 5825 5822 5820 5821 5821 5820 5818 5815 5815 5815 5814 5812 5809 5808 5806
5901 5901 5901 5901 5900 5900 5900 5900 5900 5899 5899 5898 5898 5897 5897 5896 5895 5893 5892 5891 5890 5888 5887 5886 5885 5883 5881 5880 5879 5877 5876 5874 5872 5871 5869 5867 5865 5863 5861 5860 5859 5858 5857 5856 5855 5854 5853 5853 5852 5851 5850 5849 5848 5846 5845 5844 5843 5842 5841 5840 5839 5839 5839 5838 5837 5836 5836 5835 5833 5831 5829 5827 5825 5822 5819 5818 5818 5818 5817 5814 5812 5811 5810 5809 5808 5806 5804 5803
5900 5900 5900 5900 5900 5899 5899 5899 5899 5898 5898 5898 5897 5896 5896 5895 5894 5892 5891 5890 5889 5888 5886 5885 5884 5882 5881 5879 5878 5876 5875 5874 5872 5870 5869 5867 5865 5863 5861 5859 5858 5857 5856 5855 5854 5853 5852 5851 5850 5849 5848 5847 5846 5845 5844 5842 5841 5841 5840 5838 5837 5837 5837 5836 5834 5834 5833 5832 5830 5828 5826 5824 5822 5819 5817 5815 5816 5816 5814 5811 5809 5807 5806 5804 5802 5801 5799 5798
5899 5899 5899 5899 5899 5898 5898 5898 5898 5898 5897 5897 5896 5895 5895 5894 5893 5892 5890 5889 5888 5887 5886 5884 5883 5882 5880 5879 5877 5875 5874 5873 5871 5870 5868 5866 5864 5863 5861 5859 5857 5856 5855 5854 5853 5852 5851 5850 5848 5847 5846 5845 5844 5844 5842 5841 5839 5838 5838 5836 5835 5835 5834 5834 5832 5831 5831 5829 5827 5825 5823 5821 5819 5817 5815 5813 5813 5813 5811 5808 5806 5804 5802 5800 5798 5797 5795 5793
5897 5898 5898 5897 5897 5897 5897 5897 5897 5897 5896 5896 5895 5895 5894 5893 5892 5891 5890 5888 5887 5886 5885 5884 5882 5881 5879 5878 5876 5874 5873 5872 5870 5868 5867 5865 5863 5862 5860 5859 5857 5856 5854 5853 5852 5850 5849 5848 5847 5845 5844 5843 5842 5841 5840 5839 5837 5836 5836 5835 5833 5832 5831 5830 5829 5828 5827 5826 5824 5822 5820 5817 5815 5814 5813 5811 5810 5809 5807 5805 5803 5801 5798 5796 5794 5793 5791 5789
5896 5896 5896 5896 5896 5896 5896 5896 5896 5896 5895 5895 5894 5893 5892 5891 5890 5890 5889 5887 5886 5885 5884 5882 5881 5880 5878 5877 5875 5874 5872 5871 5869 5867 5866 5864 5862 5861 5860 5858 5857 5856 5854 5852 5850 5849 5848 5846 5845 5843 5842 5841 5840 5839 5837 5837 5835 5833 5833 5833 5831 5830 5828 5827 5826 5825 5824 5822 5821 5819 5816 5813 5811 5811 5810 5809 5808 5805 5802 5800 5799 5796 5794 5792 5790 5788 5786 5784
5894 5894 5895 5895 5894 5894 5894 5894 5894 5894 5894 5894 5893 5892 5891 5890 5889 5888 5888 5886 5885 5884 5883 5881 5880 5879 5877 5876 5875 5873 5871 5870 5868 5867 5865 5864 5862 5860 5859 5858 5856 5855 5853 5851 5849 5847 5846 5844 5843 5842 5840 5839 5838 5837 5835 5834 5833 5831 5829 5829 5829 5827 5826 5824 5823 5822 5821 5819 5817 5815 5813 5810 5808 5807 5806 5806 5805 5802 5799 5796 5794 5792 5790 5788 5785 5783 5782 5779
5892 5892 5893 5893 5893 5893 5893 5893 5892 5892 5892 5892 5891 5891 5890 5889 5888 5887 5886 5885 5884 5883 5881 5880 5879 5878 5876 5875 5874 5872 5871 5869 5868 5866 5865 5863 5861 5860 5858 5857 5855 5854 5852 5850 5848 5846 5845 5843 5841 5840 5838 5837 5835 5834 5833 5832 5831 5829 5827 5826 5826 5825 5823 5822 5820 5819 5817 5816 5814 5810 5808 5807 5805 5802 5800 5802 5802 5798 5795 5791 5789 5787 5785 5783 5781 5778 5776 5775
5890 5890 5891 5891 5891 5891 5891 5891 5891 5890 5890 5890 5890 5889 5888 5888 5887 5886 5885 5883 5882 5881 5880 5879 5878 5876 5875 5874 5872 5871 5870 5868 5866 5865 5864 5862 5861 5859 5858 5856 5855 5853 5851 5849 5847 5845 5843 5841 5840 5838 5836 5835 5833 5832 5830 5829 5828 5827 5824 5823 5822 5821 5820 5819 5818 5816 5813 5812 5810 5807 5804 5803 5802 5798 5796 5797 5797 5794 5790 5787 5785 5783 5781 5779 5777 5774 5772 5770
5887 5888 5888 5889 5889 5889 5889 5889 5889 5889 5888 5888 5888 5887 5887 5886 5885 5884 5883 5882 5881 5880 5879 5878 5877 5875 5874 5873 5871 5870 5868 5867 5865 5864 5862 5861 5859 5858 5857 5855 5854 5852 5850 5848 5846 5844 5842 5840 5837 5836 5834 5833 5832 5830 5829 5827 5825 5824 5822 5821 5820 5818 5816 5816 5815 5812 5810 5808 5805 5803 5800 5799 5798 5793 5791 5793 5793 5791 5787 5784 5782 5779 5777 5774 5772 5770 5767 5766
5885 5886 5886 5887 5887 5887 5887 5887 5887 5887 5886 5886 5886 5885 5885 5884 5883 5882 5881 5880 5879 5878 5877 5876 5875 5874 5873 5871 5870 5868 5866 5865 5863 5862 5861 5859 5858 5856 5855 5854 5852 5850 5848 5846 5844 5842 5840 5838 5836 5833 5832 5830 5829 5827 5826 5825 5823 5822 5820 5818 5817 5816 5814 5813 5812 5809 5807 5805 5802 5799 5796 5795 5793 5788 5786 5788 5787 5785 5782 5779 5777 5775 5772 5769 5767 5765 5762 5760
5883 5883 5884 5884 5885 5885 5885 5885 5885 5885 5884 5884 5884 5883 5882 5882 5881 5880 5879 5879 5877 5876 5875 5874 5873 5873 5871 5870 5868 5866 5865 5863 5862 5860 5859 5857 5856 5855 5853 5852 5850 5848 5846 5844 5842 5840 5838 5836 5834 5831 5829 5828 5826 5824 5822 5821 5819 5818 5817 5816 5814 5812 5810 5809 5809 5807 5805 5803 5799 5795 5792 5790 5788 5784 5783 5784 5782 5779 5776 5774 5771 5769 5767 5764 5761 5759 5757 5755
5881 5881 5881 5882 5882 5882 5883 5883 5882 5882 5882 5882 5881 5881 5880 5879 5878 5878 5877 5876 5875 5874 5872 5871 5871 5870 5869 5868 5867 5865 5863 5861 5860 5858 5857 5855 5854 5853 5851 5849 5848 5846 5844 5841 5839 5838 5836 5833 5831 5830 5827 5825 5823 5821 5819 5817 5816 5814 5813 5812 5810 5808 5806 5805 5805 5803 5801 5799 5795 5791 5788 5785 5782 5778 5777 5778 5777 5775 5772 5769 5767 5765 5762 5760 5757 5755 5752 5751
5878 5878 5879 5879 5879 5880 5880 5880 5880 5880 5880 5879 5879 5878 5878 5876 5875 5875 5874 5874 5873 5872 5870 5869 5869 5868 5867 5866 5865 5863 5861 5860 5858 5856 5855 5853 5852 5850 5849 5847 5845 5843 5841 5839 5837 5835 5833 5831 5829 5827 5826 5823 5821 5819 5817 5814 5812 5811 5810 5809 5807 5805 5802 5799 5798 5798 5797 5794 5790 5786 5784 5781 5777 5772 5770 5772 5772 5771 5768 5766 5763 5761 5758 5755 5753 5750 5748 5746
5875 5876 5876 5876 5877 5877 5877 5877 5877 5877 5877 5877 5876 5875 5875 5874 5873 5872 5871 5870 5870 5869 5868 5867 5866 5866 5865 5864 5862 5861 5859 5858 5856 5854 5853 5851 5850 5848 5846 5844 5843 5841 5838 5836 5834 5832 5830 5828 5826 5824 5823 5821 5818 5816 5814 5812 5808 5805 5804 5804 5802 5801 5798 5796 5793 5793 5793 5790 5786 5782 5780 5779 5776 5770 5766 5767 5767 5766 5764 5761 5758 5756 5753 5750 5747 5745 5742 5740
5872 5873 5873 5873 5873 5874 5874 5874 5875 5874 5874 5874 5873 5872 5872 5871 5870 5869 5867 5867 5866 5866 5865 5864 5863 5863 5862 5861 5859 5858 5857 5855 5854 5852 5850 5848 5847 5845 5843 5842 5840 5838 5836 5834 5832 5830 5827 5825 5823 5821 5819 5818 5816 5813 5810 5809 5806 5802 5799 5798 5797 5796 5795 5793 5789 5788 5789 5787 5783 5779 5776 5775 5773 5767 5762 5762 5763 5760 5758 5755 5752 5750 5747 5744 5741 5739 5736 5734
5869 5870 5870 5870 5870 5871 5871 5871 5871 5871 5871 5870 5870 5869 5869 5868 5867 5866 5864 5863 5862 5863 5862 5861 5860 5859 5859 5858 5856 5855 5854 5853 5851 5849 5847 5846 5844 5843 5841 5839 5837 5835 5833 5831 5829 5827 5825 5823 5820 5817 5815 5814 5812 5810 5806 5804 5803 5801 5798 5796 5795 5793 5791 5790 5785 5782 5783 5782 5779 5774 5771 5770 5768 5762 5758 5758 5757 5755 5752 5749 5745 5743 5740 5737 5735 5732 5730 5727
5866 5866 5867 5867 5867 5867 5867 5868 5868 5868 5867 5867 5867 5866 5865 5865 5863 5863 5862 5860 5859 5859 5859 5858 5857 5856 5855 5855 5853 5852 5851 5850 5848 5846 5845 5843 5841 5840 5838 5836 5834 5832 5830 5828 5825 5823 5821 5819 5816 5814 5811 5809 5807 5805 5803 5801 5798 5796 5795 5792 5791 5789 5787 5785 5780 5777 5777 5776 5773 5770 5765 5765 5763 5756 5753 5753 5751 5749 5747 5743 5740 5738 5734 5731 5729 5726 5723 5720
5863 5863 5863 5864 5863 5863 5864 5864 5864 5864 5864 5863 5863 5862 5861 5861 5860 5859 5859 5857 5855 5854 5854 5854 5853 5852 5852 5851 5850 5849 5848 5847 5845 5843 5842 5840 5838 5837 5835 5833 5831 5828 5826 5824 5822 5820 5818 5816 5814 5811 5808 5806 5803 5802 5799 5797 5795 5792 5790 5788 5786 5783 5781 5779 5775 5771 5771 5768 5766 5764 5760 5761 5758 5749 5748 5748 5745 5744 5741 5738 5736 5733 5730 5726 5723 5720 5717 5713
5859 5859 5860 5860 5860 5860 5860 5860 5860 5860 5860 5859 5859 5858 5857 5857 5856 5855 5856 5856 5853 5852 5851 5850 5849 5848 5848 5848 5847 5846 5845 5844 5842 5840 5838 5837 5834 5833 5832 5830 5827 5825 5822 5820 5818 5816 5814 5813 5811 5808 5805 5803 5800 5798 5795 5793 5791 5788 5786 5784 5782 5779 5776 5774 5770 5767 5766 5762 5760 5757 5754 5756 5754 5745 5743 5743 5741 5739 5735 5733 5731 5728 5724 5720 5717 5713 5710 5706
5855 5855 5856 5856 5856 5856 5856 5856 5856 5856 5856 5855 5855 5855 5853 5853 5851 5851 5851 5853 5853 5851 5849 5848 5847 5846 5845 5845 5844 5842 5841 5841 5839 5837 5835 5833 5831 5829 5827 5826 5823 5820 5819 5817 5815 5814 5811 5809 5807 5805 5802 5800 5798 5795 5792 5790 5788 5785 5782 5780 5778 5775 5772 5770 5767 5763 5760 5757 5755 5751 5748 5749 5747 5741 5738 5737 5736 5734 5730 5727 5724 5721 5717 5712 5709 5706 5701 5697
5851 5852 5852 5852 5853 5852 5852 5852 5852 5852 5851 5851 5851 5850 5849 5848 5847 5846 5845 5846 5849 5849 5848 5846 5845 5844 5844 5842 5840 5839 5838 5837 5836 5834 5831 5829 5827 5825 5823 5822 5820 5817 5815 5813 5811 5810 5808 5805 5803 5802 5799 5797 5795 5792 5789 5786 5784 5782 5779 5776 5773 5770 5767 5765 5763 5759 5756 5753 5750 5746 5743 5743 5740 5736 5733 5732 5730 5727 5723 5721 5717 5713 5709 5705 5701 5698 5693 5689
5847 5848 5848 5848 5849 5848 5848 5848 5848 5848 5847 5847 5847 5846 5845 5844 5842 5842 5840 5839 5842 5845 5845 5843 5842 5841 5841 5839 5837 5836 5834 5833 5832 5830 5828 5826 5824 5821 5819 5817 5816 5814 5811 5809 5807 5806 5805 5802 5800 5798 5796 5794 5792 5789 5786 5782 5779 5777 5775 5772 5769 5766 5763 5760 5758 5755 5752 5750 5746 5741 5738 5737 5734 5731 5728 5726 5724 5720 5717 5714 5710 5706 5701 5696 5694 5690 5686 5681
5843 5843 5844 5844 5844 5844 5844 5844 5844 5844 5843 5843 5843 5842 5840 5839 5838 5837 5835 5833 5835 5840 5841 5839 5839 5838 5836 5835 5833 5832 5830 5829 5828 5827 5825 5823 5820 5817 5815 5812 5811 5810 5807 5804 5803 5802 5801 5799 5796 5794 5792 5790 5788 5786 5782 5778 5775 5772 5770 5768 5764 5762 5759 5756 5753 5749 5747 5745 5742 5737 5732 5729 5728 5726 5723 5721 5718 5714 5712 5709 5705 5700 5695 5690 5687 5683 5678 5674
5839 5839 5839 5840 5840 5840 5840 5840 5840 5839 5839 5839 5838 5837 5836 5835 5834 5832 5831 5827 5829 5836 5836 5834 5834 5833 5831 5830 5828 5827 5825 5824 5823 5822 5821 5819 5816 5814 5811 5808 5806 5805 5804 5800 5799 5798 5797 5795 5793 5790 5788 5786 5783 5781 5778 5774 5771 5768 5765 5763 5759 5757 5754 5751 5748 5744 5741 5739 5737 5734 5727 5721 5722 5721 5717 5715 5712 5708 5705 5702 5699 5694 5689 5685 5682 5677 5672 5668
5834 5834 5835 5835 5835 5835 5835 5836 5836 5835 5834 5834 5834 5833 5831 5831 5829 5828 5825 5820 5823 5830 5831 5829 5829 5827 5826 5825 5823 5822 5820 5819 5818 5817 5817 5814 5812 5809 5807 5805 5801 5799 5798 5795 5793 5793 5791 5790 5789 5785 5784 5781 5778 5775 5772 5768 5765 5762 5760 5758 5755 5752 5749 5746 5743 5739 5736 5734 5732 5731 5723 5715 5717 5716 5711 5707 5704 5702 5699 5695 5691 5686 5682 5679 5676 5671 5665 5660
5829 5829 5830 5830 5830 5830 5830 5831 5831 5831 5830 5829 5829 5828 5827 5827 5825 5823 5820 5815 5818 5824 5824 5823 5823 5821 5820 5820 5818 5818 5816 5815 5813 5812 5812 5810 5807 5805 5803 5802 5799 5796 5793 5789 5787 5787 5784 5784 5782 5780 5779 5776 5772 5770 5766 5763 5760 5757 5755 5752 5750 5747 5744 5741 5737 5734 5731 5728 5727 5725 5718 5711 5709 5709 5707 5701 5696 5694 5691 5686 5683 5679 5675 5672 5668 5662 5658 5653
5823 5824 5824 5825 5825 5825 5825 5826 5826 5826 5825 5824 5824 5823 5823 5822 5821 5819 5815 5813 5816 5817 5815 5817 5817 5815 5814 5813 5813 5813 5812 5810 5808 5807 5805 5804 5802 5800 5798 5797 5795 5793 5790 5786 5783 5781 5779 5778 5776 5775 5773 5769 5767 5764 5761 5758 5755 5753 5751 5748 5745 5742 5739 5736 5732 5729 5726 5722 5721 5718 5713 5707 5702 5701 5699 5693 5690 5689 5684 5676 5673 5671 5667 5664 5660 5654 5649 5645
5818 5818 5818 5819 5819 5819 5820 5820 5820 5820 5820 5819 5818 5818 5817 5816 5815 5814 5810 5812 5815 5811 5809 5811 5810 5808 5808 5807 5807 5807 5806 5804 5804 5802 5800 5798 5796 5794 5792 5791 5789 5787 5785 5782 5779 5777 5775 5773 5772 5770 5767 5765 5763 5760 5757 5754 5750 5748 5745 5742 5740 5736 5734 5730 5726 5724 5720 5716 5714 5710 5706 5701 5694 5694 5690 5681 5680 5681 5676 5671 5667 5664 5661 5657 5652 5647 5642 5638
5812 5812 5812 5813 5813 5814 5814 5814 5815 5815 5814 5814 5813 5812 5812 5810 5808 5808 5808 5811 5810 5806 5805 5806 5804 5802 5802 5802 5802 5802 5800 5798 5798 5798 5796 5793 5791 5789 5787 5786 5784 5781 5779 5778 5775 5772 5770 5768 5767 5765 5762 5759 5757 5755 5752 5748 5745 5742 5740 5737 5734 5731 5728 5724 5720 5718 5713 5710 5707 5703 5700 5694 5688 5687 5682 5673 5672 5669 5663 5661 5658 5657 5654 5650 5645 5640 5635 5631
5806 5806 5807 5807 5807 5808 5809 5809 5809 5809 5808 5808 5806 5805 5806 5803 5800 5804 5809 5809 5804 5801 5801 5800 5798 5797 5797 5796 5797 5797 5795 5792 5791 5791 5790 5787 5785 5784 5782 5781 5780 5775 5771 5770 5768 5765 5763 5762 5761 5759 5756 5753 5750 5748 5746 5743 5739 5736 5735 5732 5727 5725 5722 5717 5713 5710 5706 5703 5701 5697 5694 5688 5684 5682 5675 5669 5668 5664 5656 5651 5649 5648 5644 5641 5637 5632 5628 5624
5800 5801 5801 5801 5802 5802 5802 5803 5803 5803 5802 5801 5799 5798 5798 5794 5794 5801 5806 5805 5801 5799 5797 5794 5792 5791 5791 5791 5792 5791 5790 5788 5787 5785 5784 5781 5779 5779 5778 5777 5776 5771 5766 5764 5762 5759 5756 5755 5755 5752 5749 5747 5744 5742 5739 5736 5732 5729 5728 5725 5721 5719 5715 5710 5707 5702 5699 5697 5693 5691 5687 5681 5680 5677 5670 5666 5663 5658 5653 5648 5645 5641 5637 5634 5630 5625 5620 5616
5794 5795 5795 5795 5796 5796 5796 5797 5797 5797 5796 5794 5792 5790 5788 5787 5792 5797 5799 5798 5797 5796 5794 5790 5787 5785 5785 5786 5786 5786 5784 5782 5783 5781 5779 5776 5774 5774 5774 5773 5771 5767 5763 5760 5758 5755 5751 5749 5748 5745 5742 5740 5738 5736 5733 5730 5726 5722 5720 5717 5715 5713 5707 5704 5700 5694 5692 5691 5687 5684 5680 5676 5674 5670 5664 5662 5659 5652 5647 5644 5640 5635 5631 5628 5623 5617 5613 5609
5788 5789 5789 5789 5790 5790 5790 5790 5791 5791 5789 5787 5785 5780 5778 5783 5791 5792 5791 5791 5790 5790 5789 5786 5782 5780 5781 5781 5780 5781 5779 5776 5776 5774 5772 5770 5768 5768 5768 5768 5766 5762 5759 5756 5752 5749 5745 5743 5742 5739 5737 5734 5732 5731 5727 5723 5720 5717 5713 5709 5708 5706 5700 5697 5693 5686 5683 5682 5682 5680 5675 5671 5668 5663 5658 5656 5652 5647 5642 5639 5634 5628 5624 5621 5616 5611 5606 5602
5782 5782 5783 5783 5784 5784 5784 5784 5784 5783 5781 5779 5775 5770 5773 5782 5787 5787 5785 5785 5784 5783 5782 5779 5778 5777 5775 5775 5775 5775 5774 5772 5771 5769 5766 5765 5762 5762 5762 5760 5758 5756 5753 5751 5746 5743 5739 5737 5736 5733 5730 5728 5726 5724 5721 5718 5714 5711 5707 5703 5700 5698 5694 5690 5685 5681 5676 5672 5673 5673 5669 5666 5660 5653 5654 5650 5643 5639 5636 5632 5629 5623 5619 5616 5610 5605 5600 5596
5775 5775 5776 5778 5779 5778 5778 5778 5777 5774 5773 5770 5765 5764 5770 5778 5782 5782 5779 5779 5778 5777 5775 5773 5773 5772 5769 5769 5770 5769 5767 5766 5765 5763 5761 5760 5757 5756 5756 5754 5752 5749 5747 5745 5741 5737 5732 5730 5729 5727 5724 5722 5719 5716 5714 5712 5708 5704 5701 5697 5694 5691 5689 5685 5678 5675 5672 5667 5665 5664 5661 5660 5654 5646 5646 5644 5636 5632 5629 5626 5623 5618 5614 5610 5605 5598 5594 5590
5767 5768 5768 5771 5773 5772 5771 5770 5769 5767 5764 5759 5756 5760 5767 5772 5777 5776 5772 5772 5772 5770 5769 5768 5767 5766 5763 5764 5765 5764 5761 5759 5757 5756 5755 5753 5750 5750 5750 5747 5745 5744 5741 5737 5735 5731 5726 5722 5721 5720 5717 5715 5712 5709 5707 5704 5701 5697 5694 5692 5689 5685 5683 5680 5672 5666 5666 5661 5657 5657 5654 5651 5649 5643 5638 5637 5631 5624 5621 5619 5616 5613 5610 5605 5599 5593 5588 5584
5759 5759 5761 5765 5767 5766 5764 5763 5761 5758 5753 5750 5751 5756 5762 5766 5770 5768 5765 5766 5766 5763 5763 5763 5761 5759 5759 5759 5759 5757 5755 5752 5751 5750 5748 5745 5743 5742 5742 5741 5739 5737 5735 5731 5728 5726 5721 5715 5712 5712 5710 5707 5705 5703 5700 5698 5694 5690 5686 5685 5683 5680 5676 5674 5667 5661 5658 5653 5647 5648 5647 5644 5643 5641 5635 5630 5625 5617 5612 5610 5608 5606 5604 5599 5593 5587 5583 5578
5752 5751 5753 5758 5760 5759 5758 5755 5752 5748 5745 5744 5747 5752 5756 5759 5761 5761 5758 5758 5758 5757 5757 5756 5755 5754 5755 5755 5753 5750 5747 5745 5746 5745 5742 5739 5737 5735 5735 5734 5733 5730 5727 5724 5722 5719 5715 5709 5705 5704 5702 5699 5698 5695 5693 5691 5688 5684 5680 5677 5676 5674 5669 5665 5663 5659 5653 5645 5640 5637 5636 5636 5635 5633 5631 5627 5620 5613 5607 5603 5601 5599 5597 5592 5586 5580 5576 5571
5744 5743 5746 5751 5751 5751 5750 5746 5742 5740 5738 5738 5742 5748 5751 5751 5752 5752 5751 5750 5750 5751 5751 5749 5749 5750 5750 5749 5747 5745 5740 5739 5740 5739 5736 5734 5730 5728 5728 5728 5727 5723 5719 5717 5715 5712 5709 5703 5699 5697 5695 5692 5690 5688 5685 5683 5681 5677 5674 5671 5670 5667 5663 5656 5653 5656 5651 5639 5635 5630 5624 5628 5629 5623 5622 5621 5615 5609 5603 5599 5597 5594 5589 5584 5578 5573 5569 5563
5735 5734 5739 5742 5741 5742 5741 5737 5734 5732 5730 5733 5739 5743 5744 5744 5744 5743 5742 5741 5743 5743 5742 5743 5745 5745 5745 5743 5741 5738 5734 5734 5736 5733 5729 5728 5724 5721 5722 5723 5721 5717 5713 5711 5709 5706 5702 5697 5693 5691 5688 5685 5682 5681 5679 5676 5673 5670 5666 5665 5662 5659 5657 5650 5644 5646 5643 5633 5631 5624 5614 5619 5625 5619 5614 5612 5608 5603 5597 5593 5591 5588 5584 5577 5570 5567 5563 5557
5726 5727 5731 5731 5729 5730 5730 5727 5727 5726 5727 5731 5733 5734 5735 5737 5737 5735 5733 5733 5734 5735 5734 5737 5739 5739 5739 5738 5735 5732 5729 5729 5732 5729 5722 5719 5717 5715 5715 5716 5714 5710 5707 5705 5703 5700 5695 5690 5686 5683 5681 5679 5675 5673 5672 5669 5666 5662 5659 5657 5654 5651 5648 5643 5639 5637 5632 5630 5627 5614 5605 5610 5614 5611 5610 5606 5600 5595 5589 5586 5586 5582 5578 5571 5564 5561 5556 5550
5718 5718 5720 5720 5718 5718 5719 5719 5721 5722 5724 5725 5724 5725 5729 5730 5728 5727 5727 5725 5724 5725 5727 5731 5733 5731 5731 5730 5727 5727 5725 5723 5725 5724 5716 5710 5711 5712 5710 5708 5706 5703 5701 5699 5697 5694 5689 5684 5680 5675 5672 5671 5669 5667 5665 5663 5659 5655 5653 5649 5646 5644 5640 5635 5635 5628 5621 5627 5624 5603 5599 5608 5603 5596 5600 5598 5592 5588 5581 5578 5578 5575 5569 5563 5558 5554 5548 5543
5709 5708 5709 5710 5708 5707 5709 5713 5715 5716 5717 5717 5717 5720 5723 5721 5719 5720 5720 5717 5714 5715 5720 5725 5726 5723 5722 5720 5719 5720 5721 5717 5714 5713 5709 5704 5704 5706 5705 5701 5699 5696 5694 5692 5691 5688 5683 5679 5676 5671 5666 5663 5661 5659 5658 5656 5653 5648 5646 5643 5640 5638 5634 5630 5627 5618 5613 5620 5616 5597 5594 5604 5599 5588 5586 5584 5580 5578 5574 5571 5570 5567 5560 5555 5551 5546 5541 5537
5699 5698 5700 5700 5699 5698 5702 5706 5706 5707 5710 5711 5711 5714 5715 5712 5713 5714 5711 5708 5707 5709 5713 5717 5718 5716 5712 5711 5711 5713 5714 5709 5702 5700 5700 5699 5699 5699 5697 5694 5691 5689 5686 5684 5682 5679 5675 5672 5670 5666 5662 5659 5655 5651 5649 5649 5646 5642 5638 5636 5633 5630 5629 5624 5617 5612 5610 5606 5603 5599 5593 5592 5595 5591 5581 5574 5571 5568 5565 5564 5563 5559 5553 5549 5544 5538 5534 5530
5688 5689 5692 5693 5691 5690 5692 5695 5697 5700 5706 5705 5702 5704 5704 5703 5705 5704 5700 5700 5703 5705 5706 5708 5710 5707 5705 5706 5705 5704 5705 5699 5692 5691 5691 5692 5693 5691 5688 5686 5684 5682 5679 5675 5673 5670 5665 5664 5664 5658 5654 5654 5650 5644 5642 5640 5638 5636 5630 5626 5627 5625 5623 5618 5610 5607 5606 5594 5591 5599 5592 5581 5586 5588 5578 5570 5565 5562 5559 5557 5555 5551 5547 5543 5537 5532 5528 5523
5680 5681 5684 5684 5682 5681 5683 5686 5689 5692 5696 5695 5693 5696 5697 5694 5694 5692 5691 5692 5696 5699 5700 5700 5702 5699 5698 5700 5697 5695 5696 5690 5684 5686 5686 5684 5684 5682 5679 5678 5676 5673 5670 5666 5665 5661 5654 5654 5656 5650 5645 5647 5643 5636 5635 5631 5628 5630 5624 5616 5619 5620 5617 5612 5605 5602 5598 5586 5584 5592 5587 5579 5580 5578 5571 5565 5558 5555 5554 5550 5547 5544 5540 5536 5531 5526 5521 5515
5671 5673 5675 5674 5674 5676 5677 5679 5679 5678 5683 5686 5685 5688 5688 5684 5685 5685 5684 5684 5688 5692 5691 5690 5694 5694 5691 5693 5688 5684 5687 5682 5677 5682 5681 5673 5673 5672 5670 5669 5667 5664 5662 5658 5655 5652 5645 5645 5646 5641 5636 5638 5635 5629 5628 5624 5620 5621 5616 5609 5610 5613 5608 5602 5598 5595 5590 5582 5581 5581 5577 5579 5577 5567 5562 5560 5552 5548 5548 5543 5540 5536 5531 5528 5524 5519 5514 5508
5662 5665 5669 5666 5666 5669 5667 5667 5669 5669 5673 5676 5673 5674 5676 5676 5680 5681 5678 5678 5682 5682 5678 5677 5685 5687 5682 5681 5678 5674 5679 5677 5670 5674 5672 5664 5663 5663 5660 5660 5659 5656 5654 5650 5646 5643 5638 5635 5635 5631 5626 5627 5627 5622 5619 5617 5613 5610 5609 5605 5603 5602 5599 5593 5589 5587 5581 5577 5577 5573 5569 5574 5573 5561 5555 5553 5547 5543 5540 5537 5534 5529 5524 5520 5517 5512 5507 5501
5653 5656 5660 5655 5655 5662 5659 5657 5661 5660 5661 5663 5661 5664 5668 5668 5674 5675 5669 5671 5674 5670 5669 5672 5677 5676 5669 5667 5667 5666 5670 5669 5662 5663 5662 5654 5653 5654 5651 5651 5651 5648 5645 5641 5637 5635 5630 5626 5625 5620 5614 5616 5619 5614 5611 5610 5604 5602 5605 5603 5596 5591 5589 5586 5582 5578 5573 5570 5570 5567 5564 5565 5563 5556 5550 5546 5541 5537 5534 5530 5527 5522 5517 5512 5508 5504 5500 5494
5643 5644 5649 5646 5646 5654 5652 5646 5647 5648 5652 5656 5654 5656 5659 5660 5664 5663 5656 5659 5665 5665 5667 5669 5666 5662 5659 5657 5659 5660 5661 5657 5652 5652 5650 5644 5644 5645 5643 5642 5642 5639 5637 5633 5629 5627 5622 5617 5615 5611 5604 5605 5608 5605 5602 5600 5594 5594 5601 5597 5588 5583 5581 5577 5574 5571 5567 5563 5560 5559 5559 5556 5553 5549 5545 5539 5535 5532 5528 5523 5519 5515 5511 5506 5500 5495 5490 5486